{"data":{"norad_id":29495,"intl_designator":"2006-043B","name":"OPTUS D1","alt_names":[],"object_type":"PAYLOAD","status":"ACTIVE","operator":null,"country":"AUS","launch_date":"2006-10-13","launch_site_code":"FRGUI","launch_vehicle":null,"mission":null,"orbit_class":"UNKNOWN","rcs_meters":3.9811,"size_class":null,"mass_kg":null,"dimensions":null,"purposes":["comms"],"wikipedia_slug":null,"has_3d_model":false,"image_url":null,"decayed_at":null,"tle_current":{"epoch":"2026-09-19T21:06:49.985280Z","epoch_age_seconds":71807,"freshness":"FRESH","line1":"1 29495U 06043B   26262.87974520 -.00000186  00000+0  00000+0 0  9996","line2":"2 29495   3.2713  78.4089 0003644  93.4638 295.6152  1.00272865 73071","mean_motion":1.00272865,"eccentricity":0.0003644,"inclination_deg":3.2713,"raan_deg":78.4089,"arg_perigee_deg":93.4638,"mean_anomaly_deg":295.6152,"bstar":0,"rev_number":7307,"period_min":1436.0814363886,"perigee_km":35770.927482702,"apogee_km":35801.656918704,"semimajor_km":42164.429200703,"source":"CELESTRAK","updated_at":"2026-09-20T09:00:35.128187Z"}}}